FW4751 Weather Reports


time (UTC)temp
F
wind
direction
speed
knots
gust
knots
rain 1hr
in
rain 24hr
in
rain mn
in
humidity
%
barometer
mb
20260901203504 72 45 0.9 3.5 0.00 0.00 0.00 56 1016.2
20260901203004 71 45 1.7 4.3 0.00 0.00 0.00 56 1016.4
20260901202544 71 45 0.9 3.5 0.00 0.00 0.00 58 1016.6
20260901202007 70 45 1.7 4.3 0.00 0.00 0.00 57 1016.7
20260901201524 70 45 1.7 2.6 0.00 0.00 0.00 57 1016.7
20260901201004 70 45 1.7 4.3 0.00 0.00 0.00 57 1016.8
20260901200504 70 45 1.7 4.3 0.00 0.00 0.00 57 1016.9
20260901200004 70 0 0.9 3.5 0.00 0.00 0.00 57 1016.9
20260901195504 70 45 1.7 4.3 0.00 0.00 0.00 57 1016.9
20260901195004 70 23 1.7 4.3 0.00 0.00 0.00 57 1016.9
20260901194509 70 45 1.7 4.3 0.00 0.00 0.00 56 1016.8
20260901194004 70 45 1.7 4.3 0.00 0.00 0.00 55 1016.9
20260901193504 71 0 1.7 5.2 0.00 0.00 0.00 54 1017.0
20260901193004 72 293 0.9 1.7 0.00 0.00 0.00 53 1017.0
20260901192504 71 158 1.7 3.5 0.00 0.00 0.00 53 1016.9
20260901192004 70 225 0.9 2.6 0.00 0.00 0.00 55 1016.9
20260901191504 70 225 0.9 2.6 0.00 0.00 0.00 55 1016.9
20260901191004 70 135 0.9 1.7 0.00 0.00 0.00 56 1017.1
20260901190504 69 135 0.9 2.6 0.00 0.00 0.00 56 1017.2
20260901190004 69 45 0.9 1.7 0.00 0.00 0.00 57 1017.2
20260901185524 69 0.0 1.7 0.00 0.00 0.00 57 1017.2
20260901185004 69 0.0 0.9 0.00 0.00 0.00 58 1017.3
20260901184504 69 0.0 1.7 0.00 0.00 0.00 58 1017.4
20260901184004 69 0.0 0.9 0.00 0.00 0.00 58 1017.3
20260901183504 68 270 0.9 1.7 0.00 0.00 0.00 58 1017.3
20260901183004 68 23 0.9 1.7 0.00 0.00 0.00 59 1017.3
20260901182504 68 0.0 1.7 0.00 0.00 0.00 59 1017.3
20260901182004 68 23 0.9 1.7 0.00 0.00 0.00 58 1017.3
20260901181504 68 23 0.9 2.6 0.00 0.00 0.00 58 1017.3
20260901181004 68 45 0.9 2.6 0.00 0.00 0.00 58 1017.3
20260901180504 68 135 0.9 1.7 0.00 0.00 0.00 59 1017.3
20260901180009 68 270 0.9 1.7 0.00 0.00 0.00 59 1017.3
20260901175504 68 270 0.9 2.6 0.00 0.00 0.00 60 1017.3
20260901175007 68 315 0.9 2.6 0.00 0.00 0.00 59 1017.3
20260901174524 68 0.0 1.7 0.00 0.00 0.00 59 1017.2
20260901174006 68 315 0.9 1.7 0.00 0.00 0.00 59 1017.2
20260901173504 68 0.0 1.7 0.00 0.00 0.00 58 1017.1
20260901173004 68 225 0.9 1.7 0.00 0.00 0.00 58 1017.1
20260901172504 68 225 0.9 1.7 0.00 0.00 0.00 58 1017.0
20260901172029 68 248 0.9 1.7 0.00 0.00 0.00 58 1016.9
20260901171504 68 225 0.9 2.6 0.00 0.00 0.00 58 1016.9
20260901171004 68 315 0.9 2.6 0.00 0.00 0.00 58 1016.9
20260901170504 68 315 0.9 2.6 0.00 0.00 0.00 58 1016.8
20260901170004 68 293 0.9 1.7 0.00 0.00 0.00 58 1016.8
20260901165509 67 0.0 0.9 0.00 0.00 0.00 58 1016.8
20260901165004 67 315 0.9 1.7 0.00 0.00 0.00 59 1016.8
20260901164504 67 315 0.9 1.7 0.00 0.00 0.00 59 1016.9
20260901164009 67 45 0.9 1.7 0.00 0.00 0.00 60 1016.7
20260901163503 66 225 0.9 1.7 0.00 0.00 0.00 61 1016.7
20260901163008 66 225 0.9 1.7 0.00 0.00 0.00 61 1016.7
20260901162508 66 315 0.9 1.7 0.00 0.00 0.00 61 1016.8
20260901162024 66 293 0.9 1.7 0.00 0.00 0.00 62 1016.7
20260901161504 65 0.0 0.9 0.00 0.00 0.00 62 1016.6
20260901161003 65 270 0.9 1.7 0.00 0.00 0.00 62 1016.7
20260901160504 65 315 0.9 1.7 0.00 0.00 0.00 62 1016.8
20260901160004 65 315 0.9 3.5 0.00 0.00 0.00 62 1016.8
20260901155524 65 270 0.9 1.7 0.00 0.00 0.00 63 1016.6
20260901155009 65 225 0.9 1.7 0.00 0.00 0.00 63 1016.6
20260901154524 65 270 0.9 2.6 0.00 0.00 0.00 63 1016.6
20260901154028 64 225 0.9 4.3 0.00 0.00 0.00 64 1016.4
20260901153504 64 315 0.9 1.7 0.00 0.00 0.00 64 1016.5
20260901153004 64 315 0.9 1.7 0.00 0.00 0.00 65 1016.4
20260901152508 64 225 0.9 1.7 0.00 0.00 0.00 66 1016.4
20260901152006 63 225 0.9 1.7 0.00 0.00 0.00 66 1016.2
20260901151508 63 0.0 0.9 0.00 0.00 0.00 67 1016.2
20260901151004 63 248 0.9 1.7 0.00 0.00 0.00 67 1016.3
20260901150509 63 225 0.9 1.7 0.00 0.00 0.00 67 1016.3
20260901150006 63 248 0.9 2.6 0.00 0.00 0.00 68 1016.2
20260901145503 62 225 0.9 1.7 0.00 0.00 0.00 68 1016.0
20260901145003 62 180 0.9 1.7 0.00 0.00 0.00 68 1016.0
20260901144504 62 248 0.9 1.7 0.00 0.00 0.00 69 1015.9
20260901144008 62 0.0 0.9 0.00 0.00 0.00 69 1016.0
20260901143508 62 0.0 2.6 0.00 0.00 0.00 69 1015.9
20260901143008 62 0.0 0.9 0.00 0.00 0.00 69 1015.8
20260901142503 62 248 0.9 1.7 0.00 0.00 0.00 69 1015.8
20260901142004 61 0.0 1.7 0.00 0.00 0.00 69 1015.7
20260901141503 61 0.0 0.9 0.00 0.00 0.00 69 1015.7
20260901141008 61 0.0 1.7 0.00 0.00 0.00 70 1015.5
20260901140508 61 248 0.9 1.7 0.00 0.00 0.00 70 1015.5
20260901140008 61 248 0.9 2.6 0.00 0.00 0.00 70 1015.3
20260901135508 61 248 0.9 2.6 0.00 0.00 0.00 70 1015.3
20260901135003 61 248 0.9 1.7 0.00 0.00 0.00 70 1015.3
20260901134529 61 248 0.9 2.6 0.00 0.00 0.00 70 1015.1
20260901134003 61 248 0.9 2.6 0.00 0.00 0.00 70 1015.2
20260901133523 61 270 0.9 1.7 0.00 0.00 0.00 71 1015.2
20260901133008 61 0.0 1.7 0.00 0.00 0.00 71 1015.1
20260901132503 61 0.0 0.9 0.00 0.00 0.00 71 1015.1
20260901132003 61 0.0 0.9 0.00 0.00 0.00 71 1014.9
20260901131528 61 0.0 0.9 0.00 0.00 0.00 71 1014.9
20260901131028 61 0.0 1.7 0.00 0.00 0.00 71 1014.9
20260901130508 61 0.0 1.7 0.00 0.00 0.00 71 1014.9
20260901130003 61 0.0 0.9 0.00 0.00 0.00 71 1014.8
20260901125523 61 0.0 1.7 0.00 0.00 0.00 72 1014.8
20260901125006 61 0.0 0.9 0.00 0.00 0.00 72 1014.7
20260901124504 61 0.0 1.7 0.00 0.00 0.00 72 1014.9
20260901124023 61 0.0 1.7 0.00 0.00 0.00 72 1014.9
20260901123503 61 0.0 0.9 0.00 0.00 0.00 72 1014.8
20260901123028 61 0.0 0.9 0.00 0.00 0.00 72 1014.7
20260901122523 61 0.0 0.9 0.00 0.00 0.00 72 1014.8
20260901122008 61 0.0 0.9 0.00 0.00 0.00 73 1014.9
20260901121508 61 0.0 0.9 0.00 0.00 0.00 73 1014.9
20260901121008 61 0.0 0.9 0.00 0.00 0.00 73 1014.8
20260901120508 61 0.0 0.9 0.00 0.00 0.00 73 1014.8
20260901120008 61 0.0 0.9 0.00 0.00 0.00 73 1014.8
20260901115548 61 0.0 0.9 0.00 0.00 0.00 73 1014.8
20260901115003 61 0.0 0.9 0.00 0.00 0.00 73 1014.8
20260901114508 60 0.0 1.7 0.00 0.00 0.00 73 1014.7
20260901114029 60 0.0 0.9 0.00 0.00 0.00 73 1014.8
20260901113508 60 0.0 1.7 0.00 0.00 0.00 73 1014.9
20260901113028 60 0.0 0.9 0.00 0.00 0.00 74 1014.9
20260901112508 60 0.0 1.7 0.00 0.00 0.00 74 1015.0
20260901112028 60 0.0 0.9 0.00 0.00 0.00 74 1015.1
20260901111503 60 0.0 1.7 0.00 0.00 0.00 74 1015.1
20260901111005 60 0.0 0.9 0.00 0.00 0.00 74 1015.1
20260901110530 60 0.0 0.9 0.00 0.00 0.00 75 1015.1
20260901110005 60 0.0 0.9 0.00 0.00 0.00 75 1015.2
20260901105510 60 0.0 1.7 0.00 0.00 0.00 76 1015.1
20260901105005 59 0.0 1.7 0.00 0.00 0.00 76 1015.1
20260901104510 59 248 0.9 2.6 0.00 0.00 0.00 77 1015.1
20260901104010 59 0.0 2.6 0.00 0.00 0.00 78 1015.1
20260901103510 59 0.0 1.7 0.00 0.00 0.00 79 1015.0
20260901103010 59 0.0 0.9 0.00 0.00 0.00 80 1014.9
20260901102510 59 0.0 0.9 0.00 0.00 0.00 80 1015.0
20260901102005 59 0.0 0.9 0.00 0.00 0.00 81 1015.0
20260901101510 58 0.0 1.7 0.00 0.00 0.00 81 1014.9
20260901101010 58 0.0 0.9 0.00 0.00 0.00 81 1014.9
20260901100510 58 0.0 0.9 0.00 0.00 0.00 82 1014.8
20260901100005 58 0.0 0.9 0.00 0.00 0.00 82 1014.8
20260901095510 58 0.0 0.9 0.00 0.00 0.00 82 1014.8
20260901095009 57 0.0 0.9 0.00 0.00 0.00 83 1014.8
20260901094505 57 0.0 0.9 0.00 0.00 0.00 83 1014.7
20260901094030 57 0.0 0.9 0.00 0.00 0.00 83 1014.7
20260901093510 57 0.0 0.9 0.00 0.00 0.00 83 1014.7
20260901093010 57 0.0 0.9 0.00 0.00 0.00 84 1014.8
20260901092510 57 0.0 0.9 0.00 0.00 0.00 84 1014.7
20260901092010 57 0.0 0.9 0.00 0.00 0.00 84 1014.8
20260901091505 57 0.0 0.9 0.00 0.00 0.00 84 1014.9
20260901091009 56 0.0 0.9 0.00 0.00 0.00 84 1014.9
20260901090510 56 0.0 0.9 0.00 0.00 0.00 84 1014.8
20260901090030 56 0.0 0.0 0.00 0.00 0.00 84 1014.9
20260901085504 56 0.0 0.9 0.00 0.00 0.00 84 1014.8
20260901085030 56 0.0 0.9 0.00 0.00 0.00 84 1014.9
20260901084529 56 0.0 0.9 0.00 0.00 0.00 84 1014.9
20260901084005 56 0.0 0.9 0.00 0.00 0.00 84 1014.8
20260901083509 55 0.0 0.9 0.00 0.00 0.00 84 1014.7
20260901083005 55 0.0 0.9 0.00 0.00 0.00 84 1014.8
20260901082510 55 0.0 0.9 0.00 0.00 0.00 83 1014.8
20260901082010 55 0.0 0.9 0.00 0.00 0.00 83 1014.8
20260901081505 55 0.0 0.9 0.00 0.00 0.00 83 1014.9
20260901081005 56 0.0 0.9 0.00 0.00 0.00 83 1014.8
20260901080509 56 0.0 0.9 0.00 0.00 0.00 83 1014.9
20260901080010 56 0.0 0.9 0.00 0.00 0.00 83 1014.8
20260901075505 56 0.0 0.9 0.00 0.00 0.00 83 1014.7
20260901075004 56 0.0 0.9 0.00 0.00 0.00 83 1014.7
20260901074504 56 0.0 0.9 0.00 0.00 0.00 83 1014.8
20260901074024 56 0.0 0.9 0.00 0.00 0.00 83 1014.7
20260901073509 56 0.0 0.9 0.00 0.00 0.00 83 1014.7
20260901073010 56 0.0 0.9 0.00 0.00 0.00 83 1014.9
20260901072509 56 0.0 0.9 0.00 0.00 0.00 82 1014.8
20260901072009 56 0.0 0.9 0.00 0.00 0.00 82 1015.0
20260901071530 56 0.0 0.9 0.00 0.00 0.00 82 1014.9
20260901071005 56 0.0 0.9 0.00 0.00 0.00 82 1014.8
20260901070509 56 0.0 0.9 0.00 0.00 0.00 82 1014.8
20260901070006 56 0.0 0.9 0.00 0.00 0.00 82 1014.7
20260901065505 57 0.0 0.9 0.00 0.00 0.00 82 1014.6
20260901065009 57 0.0 0.9 0.00 0.00 0.00 81 1014.8
20260901064509 57 0.0 0.9 0.00 0.00 0.00 80 1014.8
20260901064009 57 0.0 0.9 0.00 0.00 0.00 79 1014.8
20260901063509 57 0.0 0.0 0.00 0.00 0.00 79 1014.8
20260901063004 57 0.0 0.9 0.00 0.00 0.00 79 1014.8
20260901062504 57 0.0 0.9 0.00 0.00 0.00 79 1014.7
20260901062004 57 0.0 0.9 0.00 0.00 0.00 79 1014.8
20260901061504 58 0.0 0.9 0.00 0.00 0.00 79 1014.7
20260901061004 58 0.0 0.9 0.00 0.00 0.00 79 1014.7
20260901060509 58 0.0 0.0 0.00 0.00 0.00 79 1014.8
20260901060004 58 0.0 0.9 0.00 0.00 0.00 79 1014.8
20260901055504 58 0.0 0.9 0.00 0.00 0.00 79 1014.9
20260901055004 58 0.0 0.9 0.00 0.00 0.00 79 1014.9
20260901054504 58 0.0 0.9 0.00 0.00 0.00 79 1015.0
20260901054009 58 0.0 0.9 0.00 0.00 0.00 78 1015.0
20260901053505 58 0.0 0.9 0.00 0.00 0.00 78 1014.9
20260901053004 58 0.0 0.9 0.00 0.00 0.00 78 1014.9
20260901052504 58 0.0 0.9 0.00 0.00 0.00 78 1014.9
20260901052004 59 0.0 0.0 0.00 0.00 0.00 77 1014.9
20260901051504 59 0.0 0.0 0.00 0.00 0.00 77 1014.9
20260901051004 59 0.0 0.9 0.00 0.00 0.00 77 1014.8
20260901050509 59 0.0 0.9 0.00 0.00 0.00 77 1014.8
20260901050004 59 0.0 0.9 0.00 0.00 0.00 77 1014.6
20260901045524 59 0.0 0.9 0.00 0.00 0.00 76 1014.6
20260901045004 59 0.0 0.9 0.00 0.00 0.00 76 1014.6
20260901044506 60 0.0 0.9 0.00 0.00 0.00 75 1014.6
20260901044004 60 0.0 0.9 0.00 0.00 0.00 75 1014.6
20260901043504 60 0.0 0.9 0.00 0.00 0.00 75 1014.6
20260901043004 60 0.0 0.9 0.00 0.00 0.00 75 1014.6
20260901042507 60 0.0 0.9 0.00 0.00 0.00 75 1014.6
20260901042009 60 0.0 0.9 0.00 0.00 0.00 74 1014.5
20260901041504 61 0.0 0.9 0.00 0.00 0.00 74 1014.5
20260901041009 61 0.0 0.9 0.00 0.00 0.00 74 1014.5
20260901040504 61 0.0 0.9 0.00 0.00 0.00 74 1014.4
20260901040004 61 0.0 1.7 0.00 0.00 0.00 73 1014.4
20260901035504 61 0.0 1.7 0.00 0.00 0.00 73 1014.4
20260901035024 61 0.0 1.7 0.00 0.00 0.00 73 1014.4
20260901034504 61 315 0.9 2.6 0.00 0.00 0.00 73 1014.4
20260901034024 61 315 0.9 1.7 0.00 0.00 0.00 73 1014.2
20260901033504 62 315 0.9 1.7 0.00 0.00 0.00 72 1014.2
20260901033009 62 315 0.9 2.6 0.00 0.00 0.00 72 1014.2
20260901032504 62 0.0 0.9 0.00 0.00 0.00 72 1014.1
20260901032004 62 0.0 2.6 0.00 0.00 0.00 71 1014.1
20260901031504 62 0.0 1.7 0.00 0.00 0.00 71 1014.1
20260901031004 63 248 0.9 3.5 0.00 0.00 0.00 71 1013.9
20260901030549 63 293 0.9 2.6 0.00 0.00 0.00 71 1013.7
20260901030024 63 293 0.9 2.6 0.00 0.00 0.00 70 1013.7
20260901025504 63 293 0.9 2.6 0.00 0.00 0.00 70 1013.7
20260901025004 63 315 0.9 3.5 0.00 0.00 0.00 69 1013.6
20260901024524 64 315 0.9 2.6 0.00 0.00 0.00 69 1013.7
20260901024030 64 315 0.9 3.5 0.00 0.00 0.00 68 1013.7
20260901023524 64 315 0.9 3.5 0.00 0.00 0.00 68 1013.7
20260901023024 65 315 0.9 1.7 0.00 0.00 0.00 67 1013.7
20260901022503 65 338 0.9 1.7 0.00 0.00 0.00 67 1013.6
20260901022024 65 338 0.9 1.7 0.00 0.00 0.00 67 1013.7
20260901021524 66 293 0.9 2.6 0.00 0.00 0.00 66 1013.6
20260901021004 66 338 0.9 3.5 0.00 0.00 0.00 66 1013.5
20260901020504 66 315 0.9 1.7 0.00 0.00 0.00 66 1013.5
20260901020044 67 315 0.9 2.6 0.00 0.00 0.00 65 1013.5
20260901015509 67 338 0.9 3.5 0.00 0.00 0.00 66 1013.6
20260901015004 67 338 0.9 1.7 0.00 0.00 0.00 65 1013.5
20260901014503 67 338 1.7 3.5 0.00 0.00 0.00 64 1013.6
20260901014008 68 315 0.9 3.5 0.00 0.00 0.00 65 1013.4
20260901013504 68 338 0.9 4.3 0.00 0.00 0.00 65 1013.4
20260901013009 67 0 0.9 2.6 0.00 0.00 0.00 65 1013.6
20260901012504 67 315 0.9 3.5 0.00 0.00 0.00 65 1013.5
20260901012003 67 23 1.7 3.5 0.00 0.00 0.00 65 1013.4
20260901011508 67 23 1.7 5.2 0.00 0.00 0.00 65 1013.5
20260901011004 68 0 1.7 5.2 0.00 0.00 0.00 64 1013.5
20260901010503 68 0 1.7 6.1 0.00 0.00 0.00 64 1013.6
20260901010004 68 315 0.9 5.2 0.00 0.00 0.00 65 1013.5
20260901005528 68 0 1.7 4.3 0.00 0.00 0.00 65 1013.5
20260901005004 68 0 1.7 5.2 0.00 0.00 0.00 66 1013.4
20260901004509 68 23 2.6 8.7 0.00 0.00 0.00 65 1013.5
20260901004004 68 315 2.6 8.7 0.00 0.00 0.00 64 1013.5
20260901003509 68 315 2.6 6.1 0.00 0.00 0.00 64 1013.3
20260901003006 68 338 2.6 7.8 0.00 0.00 0.00 62 1013.3
20260901002523 69 0 2.6 7.0 0.00 0.00 0.00 61 1013.3
20260901002003 69 338 1.7 7.8 0.00 0.00 0.00 62 1013.2
20260901001508 69 338 1.7 7.0 0.00 0.00 0.00 61 1013.4
20260901001004 69 0 2.6 5.2 0.00 0.00 0.00 60 1013.2
20260901000528 70 338 2.6 8.7 0.00 0.00 0.00 60 1013.4
20260901000009 70 338 1.7 6.1 0.00 0.00 0.00 60 1013.3
20260831235509 69 338 1.7 7.0 0.00 0.00 0.00 61 1013.3
20260831235008 69 338 1.7 5.2 0.00 0.00 0.00 61 1013.4
20260831234504 69 0 1.7 5.2 0.00 0.00 0.00 61 1013.4
20260831234028 69 0 2.6 8.7 0.00 0.00 0.00 60 1013.4
20260831233508 70 338 2.6 6.1 0.00 0.00 0.00 60 1013.4
20260831233009 70 0 2.6 8.7 0.00 0.00 0.00 61 1013.4
20260831232503 70 0 2.6 6.1 0.00 0.00 0.00 61 1013.4
20260831232008 70 0 1.7 6.1 0.00 0.00 0.00 60 1013.6
20260831231508 70 0 2.6 7.0 0.00 0.00 0.00 60 1013.6
20260831231049 71 338 2.6 7.8 0.00 0.00 0.00 59 1013.4
20260831230508 71 23 2.6 7.0 0.00 0.00 0.00 59 1013.6
20260831230003 72 0 1.7 6.1 0.00 0.00 0.00 59 1013.6
20260831225528 72 23 2.6 6.1 0.00 0.00 0.00 59 1013.6
20260831225023 72 315 1.7 4.3 0.00 0.00 0.00 60 1013.5
20260831224508 71 23 1.7 4.3 0.00 0.00 0.00 60 1013.7
20260831224008 71 23 1.7 4.3 0.00 0.00 0.00 60 1013.7
20260831223543 71 23 2.6 6.1 0.00 0.00 0.00 60 1013.7
20260831223009 71 338 1.7 4.3 0.00 0.00 0.00 60 1013.7
20260831222528 71 338 1.7 4.3 0.00 0.00 0.00 60 1013.7
20260831222008 71 23 2.6 7.8 0.00 0.00 0.00 60 1013.8
20260831221508 71 338 2.6 7.8 0.00 0.00 0.00 60 1013.8
20260831221008 71 338 1.7 7.0 0.00 0.00 0.00 60 1013.9
20260831220509 72 0 1.7 6.1 0.00 0.00 0.00 60 1013.9
20260831220006 72 315 1.7 4.3 0.00 0.00 0.00 59 1014.0
20260831215528 72 338 2.6 6.1 0.00 0.00 0.00 58 1014.2
20260831215003 73 338 1.7 6.1 0.00 0.00 0.00 58 1014.2
20260831214503 73 0 1.7 6.1 0.00 0.00 0.00 58 1014.1
20260831214003 74 338 1.7 6.1 0.00 0.00 0.00 57 1014.2
20260831213528 74 315 1.7 4.3 0.00 0.00 0.00 57 1014.3
20260831213008 73 315 1.7 4.3 0.00 0.00 0.00 58 1014.3
20260831212508 72 338 1.7 6.1 0.00 0.00 0.00 59 1014.3
20260831212003 72 315 1.7 4.3 0.00 0.00 0.00 59 1014.4
20260831211508 72 0 1.7 5.2 0.00 0.00 0.00 59 1014.5
20260831210508 73 45 1.7 6.1 0.00 0.00 0.00 57 1014.4
20260831210008 74 315 1.7 5.2 0.00 0.00 0.00 56 1014.5
20260831205503 74 338 0.9 4.3 0.00 0.00 0.00 56 1014.6
20260831205028 75 225 1.7 5.2 0.00 0.00 0.00 56 1014.6
20260831204503 74 225 0.9 3.5 0.00 0.00 0.00 57 1014.5
20260831204010 74 315 1.7 4.3 0.00 0.00 0.00 57 1014.5